F4DOU-5 Weather Reports


Display with metric or nautical units.
time (UTC)temp
F
wind
direction
speed
MPH
gust
MPH
rain 1hr
in
rain 24hr
in
rain mn
in
humidity
%
barometer
mb
20260507062004 54 23 3.0 7.0 0.00 0.01 0.00 91 1013.8
20260507061004 52 134 0.0 1.0 0.00 0.01 0.00 92 1013.7
20260507055005 50 155 1.0 3.0 0.00 0.01 0.00 93 1013.7
20260507054004 50 131 2.0 3.0 0.00 0.01 0.00 93 1013.6
20260507052006 48 329 1.0 3.0 0.00 0.01 0.00 94 1013.4
20260507051004 47 151 0.0 2.0 0.00 0.01 0.00 94 1013.4
20260507050005 47 151 1.0 2.0 0.00 0.01 0.00 93 1013.2
20260507045004 47 151 1.0 3.0 0.00 0.01 0.00 92 1013.0
20260507044007 47 311 0.0 0.0 0.00 0.01 0.00 93 1012.9
20260507043004 47 314 0.0 0.0 0.00 0.01 0.00 92 1012.9
20260507042004 47 322 0.0 0.0 0.00 0.01 0.00 92 1012.8
20260507041005 47 294 0.0 2.0 0.00 0.01 0.00 92 1012.9
20260507035006 48 307 1.0 3.0 0.00 0.01 0.00 92 1012.8
20260507034006 48 306 1.0 3.0 0.00 0.01 0.00 92 1012.8
20260507033006 48 340 1.0 2.0 0.00 0.01 0.00 92 1012.8
20260507032006 48 355 0.0 2.0 0.00 0.01 0.00 91 1012.8
20260507031006 48 43 0.0 0.0 0.00 0.01 0.00 91 1012.8
20260507030006 48 43 0.0 0.0 0.00 0.01 0.00 91 1012.8
20260507024006 49 43 0.0 1.0 0.00 0.01 0.00 90 1012.8
20260507023006 49 43 1.0 2.0 0.00 0.01 0.00 90 1012.6
20260507022006 49 284 1.0 3.0 0.00 0.01 0.00 90 1012.6
20260507021006 49 318 2.0 3.0 0.00 0.01 0.00 90 1012.7
20260507020006 49 348 1.0 2.0 0.00 0.01 0.00 90 1012.7
20260507015004 50 318 1.0 3.0 0.00 0.01 0.00 90 1012.7
20260507013006 50 294 1.0 2.0 0.00 0.01 0.00 90 1012.7
20260507012006 50 235 0.0 1.0 0.00 0.01 0.00 90 1012.8
20260507010006 51 231 0.0 2.0 0.00 0.01 0.00 89 1012.8
20260507005006 51 275 0.0 1.0 0.00 0.01 0.00 89 1012.7
20260507004006 51 296 0.0 1.0 0.00 0.02 0.00 88 1012.7
20260507003007 51 276 0.0 3.0 0.00 0.02 0.00 88 1012.8
20260507002006 51 76 0.0 5.0 0.00 0.02 0.00 87 1012.8
20260507001006 52 140 0.0 1.0 0.00 0.02 0.00 87 1012.9
20260507000006 52 111 0.0 1.0 0.00 0.02 0.00 86 1012.8
20260506235004 52 54 0.0 3.0 0.00 0.02 0.00 85 1012.7
20260506234006 52 46 0.0 3.0 0.00 0.02 0.00 84 1012.6
20260506233006 53 293 0.0 0.0 0.00 0.02 0.00 83 1012.6
20260506232006 53 293 0.0 2.0 0.00 0.03 0.00 82 1012.5
20260506231005 54 324 0.0 2.0 0.00 0.05 0.00 81 1012.7
20260506230006 54 234 0.0 0.0 0.00 0.06 0.00 81 1012.7
20260506225006 55 237 0.0 0.0 0.00 0.06 0.00 79 1012.7
20260506224006 56 237 0.0 0.0 0.00 0.10 0.00 77 1012.7
20260506223005 56 237 0.0 3.0 0.00 0.13 0.00 76 1012.7
20260506222006 57 203 1.0 3.0 0.00 0.17 0.00 75 1012.7
20260506221006 57 230 0.0 1.0 0.00 0.19 0.00 75 1012.8
20260506214004 58 249 2.0 9.0 0.00 0.20 0.19 73 1012.6
20260506213004 58 245 1.0 2.0 0.00 0.21 0.19 73 1012.5
20260506212004 59 141 0.0 3.0 0.00 0.21 0.19 71 1012.5
20260506211004 59 126 2.0 6.0 0.00 0.21 0.19 70 1012.3
20260506210006 59 166 1.0 5.0 0.00 0.21 0.19 69 1012.3
20260506205006 59 180 3.0 5.0 0.00 0.21 0.19 69 1011.9
20260506204006 60 246 0.0 3.0 0.00 0.21 0.19 68 1011.9
20260506203006 60 223 1.0 5.0 0.00 0.21 0.19 68 1011.8
20260506202007 60 233 2.0 3.0 0.00 0.21 0.19 68 1011.6
20260506200006 61 225 2.0 5.0 0.00 0.21 0.19 69 1011.4
20260506195006 61 232 1.0 3.0 0.00 0.21 0.19 69 1011.4
20260506194008 61 200 1.0 3.0 0.00 0.21 0.19 70 1011.2
20260506193006 61 207 0.0 3.0 0.00 0.21 0.19 72 1011.1
20260506192006 61 217 1.0 3.0 0.00 0.21 0.19 73 1010.9
20260506191006 62 210 2.0 7.0 0.00 0.21 0.19 73 1010.6
20260506184006 63 211 3.0 9.0 0.00 0.21 0.19 70 1010.1
20260506183006 64 196 3.0 8.0 0.00 0.21 0.19 69 1010.1
20260506182005 64 185 5.0 8.0 0.00 0.21 0.19 66 1010.0
20260506181006 64 181 3.0 8.0 0.00 0.21 0.19 66 1009.9
20260506180006 64 190 5.0 8.0 0.00 0.21 0.19 65 1009.8
20260506175006 65 185 3.0 8.0 0.00 0.21 0.19 65 1009.8
20260506174005 66 181 4.0 8.0 0.00 0.21 0.19 63 1009.6
20260506172006 67 183 5.0 9.0 0.00 0.21 0.19 62 1009.6
20260506170006 67 207 5.0 12.0 0.00 0.21 0.19 60 1009.5
20260506165006 68 188 5.0 12.0 0.00 0.21 0.19 59 1009.5
20260506164006 68 191 3.0 8.0 0.00 0.21 0.19 59 1009.5
20260506161006 68 192 2.0 8.0 0.00 0.21 0.19 57 1009.5
20260506160006 68 205 2.0 9.0 0.00 0.21 0.19 56 1009.5
20260506155005 69 176 5.0 10.0 0.00 0.21 0.19 56 1009.5
20260506154006 69 183 7.0 12.0 0.00 0.21 0.19 57 1009.6
20260506153006 69 190 5.0 12.0 0.00 0.21 0.19 57 1009.6
20260506152006 69 164 6.0 12.0 0.00 0.21 0.19 57 1009.5
20260506150006 66 131 1.0 5.0 0.00 0.21 0.19 63 1009.7
20260506145006 66 84 2.0 6.0 0.00 0.21 0.19 63 1009.7
20260506143006 66 37 6.0 12.0 0.00 0.21 0.19 62 1009.9
20260506142006 67 14 5.0 9.0 0.00 0.21 0.19 63 1009.9
20260506141006 67 68 5.0 12.0 0.00 0.21 0.19 63 1010.0
20260506140006 67 107 4.0 12.0 0.00 0.21 0.19 63 1010.1
20260506135006 68 137 3.0 8.0 0.00 0.21 0.19 59 1010.1
20260506134007 69 187 3.0 7.0 0.00 0.21 0.19 59 1010.1
20260506132006 67 142 4.0 10.0 0.00 0.21 0.19 63 1010.2
20260506131006 67 103 1.0 6.0 0.01 0.21 0.19 63 1010.2
20260506130007 66 17 1.0 6.0 0.01 0.21 0.19 65 1010.2
20260506125006 64 262 2.0 6.0 0.01 0.21 0.19 65 1010.2
20260506124006 62 61 2.0 6.0 0.01 0.21 0.19 78 1010.3
20260506123006 61 24 3.0 9.0 0.01 0.21 0.19 82 1010.4
20260506122008 61 5 5.0 12.0 0.01 0.21 0.19 79 1010.5
20260506121006 63 337 5.0 12.0 0.00 0.20 0.18 72 1010.4
20260506120006 65 323 9.0 15.0 0.00 0.20 0.18 68 1010.4
20260506115006 68 244 2.0 6.0 0.00 0.20 0.18 57 1010.2
20260506114005 66 242 5.0 9.0 0.00 0.20 0.18 61 1010.2
20260506113006 66 139 3.0 7.0 0.00 0.20 0.18 62 1010.2
20260506112006 67 117 3.0 8.0 0.00 0.20 0.18 60 1010.3
20260506110005 67 332 1.0 5.0 0.00 0.20 0.18 60 1010.5
20260506104006 66 74 3.0 7.0 0.00 0.20 0.18 62 1010.8
20260506103006 65 92 2.0 5.0 0.00 0.20 0.18 64 1010.9
20260506102006 65 141 2.0 5.0 0.00 0.20 0.18 61 1011.0
20260506101005 65 170 1.0 3.0 0.00 0.20 0.18 64 1011.0
20260506100005 64 222 1.0 3.0 0.00 0.20 0.18 65 1011.0
20260506095006 63 10 1.0 5.0 0.00 0.20 0.18 67 1011.0
20260506094005 64 326 2.0 5.0 0.00 0.20 0.18 66 1011.0
20260506092005 63 334 0.0 2.0 0.00 0.20 0.18 69 1010.9
20260506091005 63 331 1.0 3.0 0.00 0.20 0.18 68 1010.8
20260506085006 63 139 2.0 6.0 0.00 0.20 0.18 68 1010.8
20260506084005 64 160 2.0 5.0 0.00 0.20 0.18 68 1010.7
20260506083005 64 247 2.0 5.0 0.00 0.20 0.18 70 1010.6
20260506082005 62 252 1.0 6.0 0.00 0.20 0.18 74 1010.6
20260506081006 62 218 2.0 6.0 0.00 0.20 0.18 74 1010.6
20260506073005 59 163 1.0 5.0 0.00 0.20 0.18 84 1010.5
20260506071005 57 192 2.0 7.0 0.00 0.20 0.18 88 1010.3